Weather in Altai

Kazakhstan     50°12′33″N   82°23′55″E
temp.,
°C
wind,
m/s
gust,
m/s
humid.,
%
clouds,
%
prec.,
mm/h
press.,
hPa
HPBL,
m
27 february, sat
sat2700:00−22sse2587100 0.0 1043126
03:00−22se2496100 0.1 1041113
06:00−22sse1299100 0.2 104123
09:00−20sse1298100 0.3 1041108
12:00−17s2491100 0.5 1040334
15:00−15s2584100 0.0 1039524
18:00−19ssw119399 0.1 103920
21:00−20sse228886 0.0 104120
28 february, sun
sun2800:00−19se228381 0.0 104020
03:00−20se228398 0.0 104020
06:00−19se228284 0.0 104020
09:00−15se31287100 0.0 1039374
12:00−11se81478100 0.0 1036560
15:00−10se91574100 0.0 1033594
18:00−10se81772100 0.0 1031508
21:00−9se81773100 0.0 1030541
1 march, mon
mon100:00−9se71680100 0.3 1028537
03:00−8sse81593100 1.4 1027533
06:00−8sse81493100 3.6 1026525
09:00−8sse81294100 3.0 1026572
12:00−6sse81394100 5.1 1024603
15:00−6sse81395100 2.3 1023592
18:00−6sse71295100 6.0 1022507
21:00−6se51296100 4.3 1023480
2 march, tue
tue200:00−6sse51196100 8.1 1023448
03:00−6sse41196100 3.7 1023462
06:00−6se3896100 6.7 1023330
09:00−5sse4896100 2.8 1022412
12:00−3sse5896100 5.0 1021503
15:00−2s5897100 3.5 1020563
18:00−2sse4898100 7.7 1018570
21:00−3sse51197100 4.5 1018607
3 march, wed
wed300:00−3sse3997100 9.3 1017589
03:00−4s31097100 4.8 1016631
06:00−4s41197100 7.6 1018560
09:00−4wsw6897100 2.4 1019517
12:00−7w3693100 3.6 1021454
15:00−8w2390100 0.4 1021365
18:00−12nw1197100 0.4 102321
21:00−14n119796 0.0 102520